Retour au catalogue

STARLINK-30128

ActifCommunicationsVLEO
NORAD 56832·PAYLOAD·🇺🇸 United States

Lancé Jun 4, 2023 depuis Cape Canaveral Space Force Station

Loading…

Prochains Passages (prochaines 24 heures)

TLE

FraisSource: CelesTrak SupGP

Époque: Sep 15, 2026, 01:41 UTC

1 56832C 23079K   26258.07062500  .00039274  00000+0  14225-2 0  2586
2 56832  43.0032  91.7144 0001480 272.2612 119.3382 15.27557867    10

Suivez STARLINK-30128 en temps réel avec AllMySat

Download on the App Store